Liberia, Costa Rica

12:48 PM CST on July 26, 2017 (GMT -0600)
Daniel Oduber Quiros International

Weather History for MRLB - November, 2014

Change the Weather History Date:

Wednesday, November 26, 2014

  Actual Average Record
Temperature  
Mean Temperature 79 °F -  
Max Temperature 85 °F 87 °F 91 °F (2000)
Min Temperature 73 °F 72 °F 66 °F (2001)
Cooling Degree Days 14    
Growing Degree Days 29 (Base 50)    
Moisture  
Dew Point 72 °F    
Average Humidity 76    
Maximum Humidity 100    
Minimum Humidity 58    
Precipitation  
Precipitation 0.00 in - - ()
Sea Level Pressure  
Sea Level Pressure 29.84 in    
Wind  
Wind Speed 7 mph ()    
Max Wind Speed 81 mph    
Max Gust Speed 29 mph    
Visibility 7.3 miles    
Events Rain    
Averages and records for this station are not official NWS values.
T = Trace of Precipitation, MM = Missing Value Source: Averaged Metar Reports

Daily Weather History Graph

Daily Weather History Graph

Search for Another Location

Airport or City:

Trip Planner

Search our weather history database for the weather conditions in past years. The results will help you decide how hot, cold, wet, or windy it might be!

Date:

Astronomy

Nov. 26, 2014 Rise Set
Actual Time 5:42 AM CST 5:16 PM CST
Civil Twilight 5:19 AM CST 5:39 PM CST
Nautical Twilight 4:53 AM CST 6:05 PM CST
Astronomical Twilight 4:27 AM CST 6:31 PM CST
Moon 9:27 AM CST 9:30 PM CST
Length of Visible Light 12h 19m
Length of Day
11h 34m
Waxing Crescent, 21% of the Moon is Illuminated
Nov 26
Waxing Crescent
Nov 29
First Quarter
Dec 6
Full
Dec 14
Last Quarter
Dec 21
New

Hourly Weather History & Observations

Time (CST) Temp. Heat Index Dew Point Humidity Pressure Visibility Wind Dir Wind Speed Gust Speed Precip Events Conditions
6:00 AM 74 °F - 72 °F 91% 29.88 in 11 mi ENE 2.3 mph - - Rain Light Rain
6:00 AM 73.4 °F - 71.6 °F 94% 29.85 in 6.2 mi ENE 2.3 mph - N/A Rain Light Rain
7:00 AM 73.4 °F - 73.4 °F 100% 29.88 in 6.2 mi Calm Calm - N/A Rain Light Rain
8:00 AM 75.2 °F - 73.4 °F 94% 29.91 in 6.2 mi South 4.6 mph - N/A Rain Light Rain
9:00 AM 78 °F - 75 °F 87% 29.94 in 11 mi WSW 4.6 mph - - Rain Light Rain
9:00 AM 78.8 °F - 75.2 °F 89% 29.91 in 6.2 mi WSW 4.6 mph - N/A Rain Light Rain
10:00 AM 80.6 °F 86.2 °F 75.2 °F 84% 29.89 in 6.2 mi West 4.6 mph - N/A   Overcast
11:00 AM 82.4 °F 87.2 °F 71.6 °F 70% 29.85 in 6.2 mi North 2.3 mph - N/A   Overcast
12:00 PM 82 °F - 75 °F 73% 29.87 in 12 mi South 9.2 mph - -   Overcast
12:00 PM 82.4 °F 89.5 °F 75.2 °F 79% 29.84 in 6.2 mi South 9.2 mph - N/A   Overcast
1:00 PM 84.2 °F 89.6 °F 71.6 °F 66% 29.79 in 6.2 mi WNW 5.8 mph - N/A   Overcast
2:00 PM 84.2 °F 90.9 °F 73.4 °F 70% 29.77 in 6.2 mi West 4.6 mph - N/A   Mostly Cloudy
3:00 PM 84.2 °F 88.4 °F 69.8 °F 62% 29.76 in 6.2 mi ENE 5.8 mph - N/A   Mostly Cloudy
4:00 PM 84.2 °F 89.6 °F 71.6 °F 66% 29.76 in 6.2 mi West 6.9 mph - N/A   Mostly Cloudy
5:00 PM 82.4 °F 88.2 °F 73.4 °F 74% 29.77 in 6.2 mi SW 4.6 mph - N/A   Mostly Cloudy
6:00 PM 82 °F - 70 °F 59% 29.81 in 12 mi 80.6 mph - -   Scattered Clouds
6:00 PM 82.4 °F 86.3 °F 69.8 °F 66% 29.77 in 6.2 mi ENE 8.1 mph - N/A   Scattered Clouds
7:00 PM 82.4 °F 84.6 °F 66.2 °F 58% 29.82 in 6.2 mi ENE 17.3 mph 28.8 mph N/A   Mostly Cloudy
8:00 PM 80.6 °F 83.2 °F 68.0 °F 65% 29.85 in 6.2 mi ENE 17.3 mph 28.8 mph N/A   Mostly Cloudy